Time,TemperatureF,DewpointF,PressureIn,WindDirection,WindDirectionDegrees,WindSpeedMPH,WindSpeedGustMPH,Humidity,HourlyPrecipIn,Conditions,Clouds,dailyrainin,SoftwareType,DateUTC
2013-07-23 00:00:00,76.0,73.0,-100.00,SW,217,2.0,7.0,91,0.00,,,-99.99,,2013-07-23 04:00:00,
2013-07-23 00:32:00,76.0,73.0,-100.00,SW,217,2.0,7.0,91,0.00,,,-99.99,,2013-07-23 04:32:00,
2013-07-23 00:43:00,76.0,73.0,-100.00,SW,217,2.0,7.0,91,0.00,,,-99.99,,2013-07-23 04:43:00,
2013-07-23 00:53:00,76.0,73.0,-100.00,SW,217,2.0,7.0,91,0.00,,,-99.99,,2013-07-23 04:53:00,
2013-07-23 01:00:00,75.0,73.0,-100.00,SSW,199,3.0,7.0,91,0.00,,,-99.99,,2013-07-23 05:00:00,
2013-07-23 01:33:00,75.0,73.0,-100.00,SSW,199,3.0,7.0,91,0.00,,,-99.99,,2013-07-23 05:33:00,
2013-07-23 01:44:00,75.0,73.0,-100.00,SSW,199,3.0,7.0,91,0.00,,,-99.99,,2013-07-23 05:44:00,
2013-07-23 01:52:00,75.0,73.0,-100.00,SSW,199,3.0,7.0,91,0.00,,,-99.99,,2013-07-23 05:52:00,
2013-07-23 02:00:00,75.0,72.0,-100.00,SSW,203,2.0,6.0,92,0.00,,,-99.99,,2013-07-23 06:00:00,
2013-07-23 02:33:00,75.0,72.0,-100.00,SSW,203,2.0,6.0,92,0.00,,,-99.99,,2013-07-23 06:33:00,
2013-07-23 02:42:00,75.0,72.0,-100.00,SSW,203,2.0,6.0,92,0.00,,,-99.99,,2013-07-23 06:42:00,
2013-07-23 02:52:00,75.0,72.0,-100.00,SSW,203,2.0,6.0,92,0.00,,,-99.99,,2013-07-23 06:52:00,
2013-07-23 03:00:00,75.0,73.0,-100.00,SSE,165,1.0,8.0,91,0.00,,,-99.99,,2013-07-23 07:00:00,
2013-07-23 03:33:00,75.0,73.0,-100.00,SSE,165,1.0,8.0,91,0.00,,,-99.99,,2013-07-23 07:33:00,
2013-07-23 03:42:00,75.0,73.0,-100.00,SSE,165,1.0,8.0,91,0.00,,,-99.99,,2013-07-23 07:42:00,
2013-07-23 03:52:00,75.0,73.0,-100.00,SSE,165,1.0,8.0,91,0.00,,,-99.99,,2013-07-23 07:52:00,
2013-07-23 04:00:00,75.0,73.0,-100.00,WSW,246,3.0,8.0,92,0.00,,,-99.99,,2013-07-23 08:00:00,
2013-07-23 04:43:00,75.0,73.0,-100.00,WSW,246,3.0,8.0,92,0.00,,,-99.99,,2013-07-23 08:43:00,
2013-07-23 04:52:00,75.0,73.0,-100.00,WSW,246,3.0,8.0,92,0.00,,,-99.99,,2013-07-23 08:52:00,
2013-07-23 05:00:00,74.0,72.0,-100.00,WSW,256,0.0,6.0,93,0.03,,,-99.99,,2013-07-23 09:00:00,
2013-07-23 05:43:00,74.0,72.0,-100.00,WSW,256,0.0,6.0,93,0.03,,,-99.99,,2013-07-23 09:43:00,
2013-07-23 05:53:00,74.0,72.0,-100.00,WSW,256,0.0,6.0,93,0.03,,,-99.99,,2013-07-23 09:53:00,
2013-07-23 06:00:00,74.0,71.0,-100.00,SW,227,2.0,7.0,91,0.02,,,-99.99,,2013-07-23 10:00:00,
2013-07-23 06:32:00,74.0,71.0,-100.00,SW,227,2.0,7.0,91,0.02,,,-99.99,,2013-07-23 10:32:00,
2013-07-23 06:44:00,74.0,71.0,-100.00,SW,227,2.0,7.0,91,0.02,,,-99.99,,2013-07-23 10:44:00,
2013-07-23 06:52:00,74.0,71.0,-100.00,SW,227,2.0,7.0,91,0.02,,,-99.99,,2013-07-23 10:52:00,
2013-07-23 07:00:00,73.0,71.0,-100.00,WSW,238,1.0,5.0,92,0.00,,,-99.99,,2013-07-23 11:00:00,
2013-07-23 07:43:00,73.0,71.0,-100.00,WSW,238,1.0,5.0,92,0.00,,,-99.99,,2013-07-23 11:43:00,
2013-07-23 07:52:00,73.0,71.0,-100.00,WSW,238,1.0,5.0,92,0.00,,,-99.99,,2013-07-23 11:52:00,
2013-07-23 08:00:00,76.0,72.0,-100.00,WSW,255,1.0,7.0,87,0.00,,,-99.99,,2013-07-23 12:00:00,
2013-07-23 08:33:00,76.0,72.0,-100.00,WSW,255,1.0,7.0,87,0.00,,,-99.99,,2013-07-23 12:33:00,
2013-07-23 08:43:00,76.0,72.0,-100.00,WSW,255,1.0,7.0,87,0.00,,,-99.99,,2013-07-23 12:43:00,
2013-07-23 09:00:00,78.0,72.0,-100.00,West,259,3.0,10.0,82,0.00,,,-99.99,,2013-07-23 13:00:00,
2013-07-23 09:32:00,78.0,72.0,-100.00,West,259,3.0,10.0,82,0.00,,,-99.99,,2013-07-23 13:32:00,
2013-07-23 09:43:00,78.0,72.0,-100.00,West,259,3.0,10.0,82,0.00,,,-99.99,,2013-07-23 13:43:00,
2013-07-23 09:52:00,78.0,72.0,-100.00,West,259,3.0,10.0,82,0.00,,,-99.99,,2013-07-23 13:52:00,
2013-07-23 10:00:00,79.0,73.0,-100.00,WSW,253,8.0,12.0,80,0.00,,,-99.99,,2013-07-23 14:00:00,
2013-07-23 10:44:00,79.0,73.0,-100.00,WSW,253,8.0,12.0,80,0.00,,,-99.99,,2013-07-23 14:44:00,
2013-07-23 10:54:00,79.0,73.0,-100.00,WSW,253,8.0,12.0,80,0.00,,,-99.99,,2013-07-23 14:54:00,
2013-07-23 11:00:00,79.0,72.0,-100.00,West,269,3.0,10.0,80,0.00,,,-99.99,,2013-07-23 15:00:00,
2013-07-23 11:32:00,79.0,72.0,-100.00,West,269,3.0,10.0,80,0.00,,,-99.99,,2013-07-23 15:32:00,
2013-07-23 11:43:00,79.0,72.0,-100.00,West,269,3.0,10.0,80,0.00,,,-99.99,,2013-07-23 15:43:00,
2013-07-23 11:52:00,79.0,72.0,-100.00,West,269,3.0,10.0,80,0.00,,,-99.99,,2013-07-23 15:52:00,
2013-07-23 12:00:00,79.0,72.0,-100.00,SSE,153,0.0,8.0,79,0.01,,,-99.99,,2013-07-23 16:00:00,
2013-07-23 12:43:00,79.0,72.0,-100.00,SSE,153,0.0,8.0,79,0.01,,,-99.99,,2013-07-23 16:43:00,
2013-07-23 12:52:00,79.0,72.0,-100.00,SSE,153,0.0,8.0,79,0.01,,,-99.99,,2013-07-23 16:52:00,
2013-07-23 13:00:00,79.0,74.0,-100.00,SW,224,3.0,8.0,86,0.01,,,-99.99,,2013-07-23 17:00:00,
2013-07-23 13:32:00,79.0,74.0,-100.00,SW,224,3.0,8.0,86,0.01,,,-99.99,,2013-07-23 17:32:00,
2013-07-23 13:42:00,79.0,74.0,-100.00,SW,224,3.0,8.0,86,0.01,,,-99.99,,2013-07-23 17:42:00,
2013-07-23 13:57:00,79.0,74.0,-100.00,SW,224,3.0,8.0,86,0.01,,,-99.99,,2013-07-23 17:57:00,
2013-07-23 14:00:00,79.0,74.0,-100.00,SW,220,6.0,13.0,84,0.00,,,-99.99,,2013-07-23 18:00:00,
2013-07-23 14:36:00,79.0,74.0,-100.00,SW,220,6.0,13.0,84,0.00,,,-99.99,,2013-07-23 18:36:00,
2013-07-23 14:49:00,79.0,74.0,-100.00,SW,220,6.0,13.0,84,0.00,,,-99.99,,2013-07-23 18:49:00,
2013-07-23 14:58:00,79.0,74.0,-100.00,SW,220,6.0,13.0,84,0.00,,,-99.99,,2013-07-23 18:58:00,
2013-07-23 15:00:00,85.0,76.0,-100.00,SSE,152,2.0,9.0,74,0.00,,,-99.99,,2013-07-23 19:00:00,
2013-07-23 15:49:00,85.0,76.0,-100.00,SSE,152,2.0,9.0,74,0.00,,,-99.99,,2013-07-23 19:49:00,
2013-07-23 15:56:00,85.0,76.0,-100.00,SSE,152,2.0,9.0,74,0.00,,,-99.99,,2013-07-23 19:56:00,
2013-07-23 16:35:00,87.0,69.0,-100.00,WSW,244,7.0,13.0,56,0.00,,,-99.99,,2013-07-23 20:35:00,
2013-07-23 16:48:00,87.0,69.0,-100.00,WSW,244,7.0,13.0,56,0.00,,,-99.99,,2013-07-23 20:48:00,
2013-07-23 16:59:00,87.0,69.0,-100.00,WSW,244,7.0,13.0,56,0.00,,,-99.99,,2013-07-23 20:59:00,
2013-07-23 17:00:00,84.0,70.0,-100.00,WSW,250,7.0,13.0,63,0.00,,,-99.99,,2013-07-23 21:00:00,
2013-07-23 17:38:00,84.0,70.0,-100.00,WSW,250,7.0,13.0,63,0.00,,,-99.99,,2013-07-23 21:38:00,
2013-07-23 17:48:00,84.0,70.0,-100.00,WSW,250,7.0,13.0,63,0.00,,,-99.99,,2013-07-23 21:48:00,
2013-07-23 17:57:00,84.0,70.0,-100.00,WSW,250,7.0,13.0,63,0.00,,,-99.99,,2013-07-23 21:57:00,
2013-07-23 18:00:00,82.0,70.0,-100.00,WNW,286,11.0,17.0,66,0.00,,,-99.99,,2013-07-23 22:00:00,
2013-07-23 18:47:00,82.0,70.0,-100.00,WNW,286,11.0,17.0,66,0.00,,,-99.99,,2013-07-23 22:47:00,
2013-07-23 19:00:00,82.0,69.0,-100.00,West,275,1.0,13.0,64,0.00,,,-99.99,,2013-07-23 23:00:00,
2013-07-23 19:47:00,82.0,69.0,-100.00,West,275,1.0,13.0,64,0.00,,,-99.99,,2013-07-23 23:47:00,
2013-07-23 20:00:00,79.0,69.0,-100.00,WSW,239,4.0,11.0,71,0.00,,,-99.99,,2013-07-24 00:00:00,
2013-07-23 20:34:00,79.0,69.0,-100.00,WSW,239,4.0,11.0,71,0.00,,,-99.99,,2013-07-24 00:34:00,
2013-07-23 20:50:00,79.0,69.0,-100.00,WSW,239,4.0,11.0,71,0.00,,,-99.99,,2013-07-24 00:50:00,
2013-07-23 20:58:00,79.0,69.0,-100.00,WSW,239,4.0,11.0,71,0.00,,,-99.99,,2013-07-24 00:58:00,
2013-07-23 21:00:00,76.0,70.0,-100.00,SW,233,3.0,5.0,79,0.00,,,-99.99,,2013-07-24 01:00:00,
2013-07-23 21:48:00,76.0,70.0,-100.00,SW,233,3.0,5.0,79,0.00,,,-99.99,,2013-07-24 01:48:00,
2013-07-23 22:00:00,76.0,69.0,-100.00,WSW,256,5.0,8.0,79,0.00,,,-99.99,,2013-07-24 02:00:00,
2013-07-23 22:40:00,76.0,69.0,-100.00,WSW,256,5.0,8.0,79,0.00,,,-99.99,,2013-07-24 02:40:00,
2013-07-23 22:48:00,76.0,69.0,-100.00,WSW,256,5.0,8.0,79,0.00,,,-99.99,,2013-07-24 02:48:00,
2013-07-23 22:57:00,76.0,69.0,-100.00,WSW,256,5.0,8.0,79,0.00,,,-99.99,,2013-07-24 02:57:00,
2013-07-23 23:00:00,76.0,69.0,-100.00,WSW,242,4.0,8.0,81,0.00,,,-99.99,,2013-07-24 03:00:00,
2013-07-23 23:46:00,76.0,69.0,-100.00,WSW,242,4.0,8.0,81,0.00,,,-99.99,,2013-07-24 03:46:00,
2013-07-23 23:58:00,76.0,69.0,-100.00,WSW,242,4.0,8.0,81,0.00,,,-99.99,,2013-07-24 03:58:00,